Miscellaneous Local Product
Issued by NWS Hastings, NE

Home | Current Version | Previous Version | Text Only | Print | Product List | Glossary On
Versions: 1 2 3 4 5 6 7 8 9 10 11 12 13 14 15 16 17 18 19 20 21 22 23 24 25 26 27 28 29 30 31 32 33 34 35 36 37 38 39 40 41 42 43 44 45 46 47 48 49 50
266
AXUS43 KGID 241402
MISGRI

GID CWA HOURLY WEATHER ROUNDUP
NATIONAL WEATHER SERVICE HASTINGS NE
900 AM CDT TUE MAY 24 2016

NOTE: "FAIR" INDICATES FEW OR NO CLOUDS BELOW 12,000 FEET WITH NO
SIGNIFICANT WEATHER AND/OR OBSTRUCTIONS TO VISIBILITY.

...SOUTH CENTRAL NEBRASKA...

CITY           SKY/WX    TMP DP  RH WIND       PRES   REMARKS
GRAND ISLAND   CLOUDY    64  62  93 S7        29.88F
HASTINGS       CLOUDY    63  62  97 S6        29.90R
KEARNEY        CLOUDY    64  63  94 S8        29.89F
ORD            MOSUNNY   60  53  77 N6        29.86F
YORK           CLOUDY    63  59  88 SW9       29.88S
AURORA         CLOUDY    64  63  97 S8        29.88F
LEXINGTON      MOSUNNY   62  54  74 SE5       29.88R
HOLDREGE       FOG       62  61  96 E7        29.89F VSB<1/4
HEBRON         LGT RAIN  61  58  91 S12       29.90R

...NEBRASKA PANHANDLE...

CITY           SKY/WX    TMP DP  RH WIND       PRES   REMARKS
CHADRON        SUNNY     55  42  61 NW5       29.92R
ALLIANCE       SUNNY     52  46  80 NW5       29.93R
SCOTTSBLUFF    SUNNY     51  44  77 CALM      29.94R
SIDNEY         SUNNY     59  41  51 CALM      29.95S

...WESTERN AND NORTH CENTRAL NEBRASKA...

CITY           SKY/WX    TMP DP  RH WIND       PRES   REMARKS
VALENTINE      SUNNY     58  46  64 S3        29.89S
AINSWORTH      SUNNY     62  49  62 W3        29.90S
ONEILL         MOSUNNY   60  51  73 CALM      29.88S
BROKEN BOW     SUNNY     67  49  52 CALM      29.87S
IMPERIAL       CLOUDY    60  52  74 NW6       29.93R
NORTH PLATTE   CLOUDY    63  49  60 CALM      29.91R
MCCOOK         SUNNY     67  58  72 S16G25    29.89R

...EASTERN NEBRASKA...

CITY           SKY/WX    TMP DP  RH WIND       PRES   REMARKS
NORFOLK        PTSUNNY   62  59  90 S6        29.88S
SO SIOUX CITY  CLOUDY    65  60  84 S7        29.88S
TEKAMAH        CLOUDY    62  60  93 SE6       29.88F
COLUMBUS       CLOUDY    63  55  77 CALM      29.89S
ALBION         CLOUDY    63  59  88 CALM      29.87S FOG
OMAHA EPPLEY   CLOUDY    65  62  90 SE6       29.89F
MILLARD        CLOUDY    64  63  94 S3        29.89S
LINCOLN        LGT RAIN  63  61  93 VRB3      29.88F
NEBRASKA CITY  CLOUDY    64  64 100 SW8       29.93R
BEATRICE       RAIN      61  58  89 E3        29.92F
FALLS CITY     PTSUNNY   66  60  81 W12       29.94R

...NORTHERN KANSAS...

CITY           SKY/WX    TMP DP  RH WIND       PRES   REMARKS
GOODLAND       MOSUNNY   60  54  80 E16G22    29.92S
HILL CITY      CLOUDY    61  57  87 E8        29.92R
NORTON         MOSUNNY   61  54  77 SE8       29.92S
PHILLIPSBURG   PTSUNNY   63  59  88 E3        29.93S
SMITH CENTER   SUNNY     61  57  88 CALM      29.95R
BELOIT         PTSUNNY   59  57  94 SE9       29.91R
HAYS           CLOUDY    61  52  72 SE15      29.92F
RUSSELL        CLOUDY    59  56  89 SE17      29.91R
CONCORDIA      CLOUDY    61  57  87 SE13      29.91F
SALINA         CLOUDY    63  60  90 SE9       29.96R
TOPEKA         CLOUDY    64  60  87 VRB5G20   29.98R



USA.gov is the U.S. government's official web portal to all federal, state and local government web resources and services.